AAY9601 CYUL-CYWG

Flight info

Callsign AAY9601
Flight time 2h 36m
Altitude 40000
Route KESKA DCT BIPKO DCT IPSAK DCT OMEGI DCT RADEN DCT YXZ DCT REVUB DCT GERTY DCT GOVIT NORAK6
Aircraft B38M/M-SDE1FGHILORVWXY/HB1

Departure

Time 2026-05-05 14:18
Airport Montreal / Pierre Elliott Trudeau International Airport (CYUL)

Arrival

Time 2026-05-05 16:55
Airport Winnipeg / James Armstrong Richardson International Airport (CYWG)
Time Latitude Longitude Altitude Speed Heading
2026-05-05 13:47 45.45470 -73.75867 107 ft 0 kts 228°
2026-05-05 14:05 45.45474 -73.75861 107 ft 4 kts 228°
2026-05-05 14:05 45.45490 -73.75836 106 ft 2 kts 228°
2026-05-05 14:05 45.45503 -73.75808 106 ft 4 kts 255°
2026-05-05 14:06 45.45501 -73.75774 107 ft 4 kts 302°
2026-05-05 14:06 45.45485 -73.75756 107 ft 2 kts 351°
2026-05-05 14:06 45.45484 -73.75756 107 ft 0 kts 351°
2026-05-05 14:10 45.45502 -73.75760 107 ft 6 kts 351°
2026-05-05 14:10 45.45585 -73.75782 107 ft 16 kts 349°
2026-05-05 14:10 45.45703 -73.75816 107 ft 18 kts 348°
2026-05-05 14:10 45.45794 -73.75906 107 ft 17 kts 319°
2026-05-05 14:11 45.45917 -73.75952 106 ft 20 kts 355°
2026-05-05 14:11 45.46033 -73.75949 107 ft 14 kts 28°
2026-05-05 14:11 45.46054 -73.75841 106 ft 14 kts 87°
2026-05-05 14:11 45.46060 -73.75668 107 ft 19 kts 88°
2026-05-05 14:12 45.46065 -73.75464 106 ft 22 kts 88°
2026-05-05 14:12 45.46019 -73.75265 107 ft 21 kts 116°
2026-05-05 14:12 45.46009 -73.75056 107 ft 21 kts 96°
2026-05-05 14:12 45.45982 -73.74852 107 ft 22 kts 88°
2026-05-05 14:13 45.45956 -73.74631 107 ft 23 kts 89°
2026-05-05 14:13 45.45991 -73.74403 105 ft 23 kts 99°
2026-05-05 14:13 45.46029 -73.74201 105 ft 24 kts 43°
2026-05-05 14:13 45.46155 -73.74037 107 ft 25 kts 43°
2026-05-05 14:14 45.46284 -73.73867 108 ft 24 kts 43°
2026-05-05 14:14 45.46399 -73.73717 110 ft 23 kts 42°
2026-05-05 14:14 45.46520 -73.73559 111 ft 25 kts 42°
2026-05-05 14:14 45.46637 -73.73406 113 ft 20 kts 43°
2026-05-05 14:15 45.46741 -73.73267 113 ft 22 kts 43°
2026-05-05 14:15 45.46855 -73.73119 115 ft 23 kts 43°
2026-05-05 14:15 45.46977 -73.72959 117 ft 24 kts 43°
2026-05-05 14:15 45.47104 -73.72793 119 ft 26 kts 42°
2026-05-05 14:16 45.47224 -73.72636 121 ft 24 kts 43°
2026-05-05 14:16 45.47351 -73.72467 119 ft 26 kts 42°
2026-05-05 14:16 45.47490 -73.72287 122 ft 27 kts 42°
2026-05-05 14:16 45.47607 -73.72133 123 ft 20 kts 43°
2026-05-05 14:17 45.47717 -73.71990 124 ft 22 kts 42°
2026-05-05 14:17 45.47838 -73.71831 124 ft 25 kts 43°
2026-05-05 14:17 45.47815 -73.71635 125 ft 22 kts 130°
2026-05-05 14:17 45.47709 -73.71596 125 ft 19 kts 219°
2026-05-05 14:18 45.47508 -73.71858 123 ft 74 kts 223°
2026-05-05 14:18 45.46951 -73.72588 118 ft 139 kts 222°
2026-05-05 14:18 45.46168 -73.73679 400 ft 166 kts 226°
2026-05-05 14:18 45.45315 -73.74916 1107 ft 174 kts 225°
2026-05-05 14:19 45.44463 -73.76151 1909 ft 182 kts 224°
2026-05-05 14:19 45.43497 -73.77490 2468 ft 205 kts 222°
2026-05-05 14:19 45.42467 -73.79001 3212 ft 220 kts 233°
2026-05-05 14:19 45.41950 -73.81135 3987 ft 241 kts 263°
2026-05-05 14:20 45.42300 -73.83551 4894 ft 261 kts 291°
2026-05-05 14:20 45.43399 -73.85660 5945 ft 269 kts 304°
2026-05-05 14:20 45.44626 -73.87655 6938 ft 271 kts 303°
2026-05-05 14:20 45.45879 -73.89686 7889 ft 275 kts 304°
2026-05-05 14:21 45.47167 -73.91761 8765 ft 282 kts 304°
2026-05-05 14:21 45.48477 -73.93862 9681 ft 285 kts 304°
2026-05-05 14:21 45.49808 -73.95997 10488 ft 293 kts 304°
2026-05-05 14:21 45.51174 -73.98185 11143 ft 304 kts 304°
2026-05-05 14:22 45.52605 -74.00476 11881 ft 313 kts 304°
2026-05-05 14:22 45.54060 -74.02808 12761 ft 316 kts 304°
2026-05-05 14:22 45.55533 -74.05169 13716 ft 318 kts 304°
2026-05-05 14:22 45.57014 -74.07546 14641 ft 321 kts 304°
2026-05-05 14:23 45.58511 -74.09945 15601 ft 324 kts 304°
2026-05-05 14:23 45.59993 -74.12337 16484 ft 326 kts 303°
2026-05-05 14:23 45.61475 -74.14802 17311 ft 326 kts 298°
2026-05-05 14:23 45.62803 -74.17435 18181 ft 327 kts 297°
2026-05-05 14:24 45.64147 -74.20082 18969 ft 330 kts 298°
2026-05-05 14:24 45.65513 -74.22755 19669 ft 335 kts 298°
2026-05-05 14:24 45.66899 -74.25457 20359 ft 338 kts 298°
2026-05-05 14:24 45.68301 -74.28189 21049 ft 341 kts 298°
2026-05-05 14:25 45.69705 -74.30924 21667 ft 346 kts 298°
2026-05-05 14:25 45.71135 -74.33726 22280 ft 349 kts 297°
2026-05-05 14:25 45.72142 -74.36815 22857 ft 339 kts 278°
2026-05-05 14:25 45.72490 -74.40149 23381 ft 341 kts 273°
2026-05-05 14:26 45.72785 -74.43501 23919 ft 345 kts 272°
2026-05-05 14:26 45.73060 -74.46926 24488 ft 348 kts 272°
2026-05-05 14:26 45.73321 -74.50391 25043 ft 351 kts 272°
2026-05-05 14:26 45.73572 -74.53873 25617 ft 352 kts 272°
2026-05-05 14:27 45.73735 -74.56191 25977 ft 353 kts 272°
2026-05-05 14:27 45.73980 -74.59714 26529 ft 355 kts 272°
2026-05-05 14:27 45.74303 -74.64414 27191 ft 359 kts 272°
2026-05-05 14:27 45.74463 -74.66773 27528 ft 360 kts 272°
2026-05-05 14:28 45.74707 -74.70357 28030 ft 362 kts 272°
2026-05-05 14:28 45.74950 -74.73947 28505 ft 364 kts 271°
2026-05-05 14:28 45.75193 -74.77566 28959 ft 366 kts 272°
2026-05-05 14:28 45.75437 -74.81211 29411 ft 368 kts 272°
2026-05-05 14:29 45.75685 -74.84873 29819 ft 370 kts 273°
2026-05-05 14:29 45.76220 -74.88509 30236 ft 375 kts 279°
2026-05-05 14:29 45.76804 -74.92156 30653 ft 376 kts 278°
2026-05-05 14:29 45.77360 -74.95831 31013 ft 378 kts 277°
2026-05-05 14:30 45.77910 -74.99531 31396 ft 380 kts 277°
2026-05-05 14:30 45.78459 -75.03255 31758 ft 382 kts 277°
2026-05-05 14:30 45.79001 -75.06949 32117 ft 385 kts 277°
2026-05-05 14:30 45.79570 -75.10710 32468 ft 387 kts 278°
2026-05-05 14:31 45.80147 -75.14484 32839 ft 388 kts 278°
2026-05-05 14:31 45.80723 -75.18259 33258 ft 387 kts 278°
2026-05-05 14:31 45.81295 -75.22033 33745 ft 385 kts 278°
2026-05-05 14:31 45.81854 -75.25730 34230 ft 383 kts 278°
2026-05-05 14:32 45.82415 -75.29448 34707 ft 380 kts 278°
2026-05-05 14:32 45.82973 -75.33156 35046 ft 382 kts 278°
2026-05-05 14:32 45.83534 -75.36888 35375 ft 382 kts 278°
2026-05-05 14:32 45.84095 -75.40637 35679 ft 384 kts 277°
2026-05-05 14:33 45.84657 -75.44390 35976 ft 385 kts 277°
2026-05-05 14:33 45.85218 -75.48153 36261 ft 386 kts 277°
2026-05-05 14:33 45.85772 -75.51878 36533 ft 387 kts 277°
2026-05-05 14:33 45.86335 -75.55664 36827 ft 388 kts 277°
2026-05-05 14:34 45.86894 -75.59441 37166 ft 386 kts 277°
2026-05-05 14:34 45.87451 -75.63208 37501 ft 385 kts 277°
2026-05-05 14:34 45.88005 -75.66975 37807 ft 384 kts 277°
2026-05-05 14:34 45.88552 -75.70698 37977 ft 386 kts 277°
2026-05-05 14:35 45.89109 -75.74499 38163 ft 388 kts 277°
2026-05-05 14:35 45.89667 -75.78304 38397 ft 388 kts 277°
2026-05-05 14:35 45.90221 -75.82103 38557 ft 391 kts 277°
2026-05-05 14:35 45.90779 -75.85934 38750 ft 391 kts 277°
2026-05-05 14:36 45.91330 -75.89724 38925 ft 393 kts 277°
2026-05-05 14:36 45.91888 -75.93583 39058 ft 395 kts 277°
2026-05-05 14:36 45.92447 -75.97452 39245 ft 395 kts 277°
2026-05-05 14:36 45.93013 -76.01329 39396 ft 398 kts 278°
2026-05-05 14:37 45.93907 -76.05128 39541 ft 404 kts 287°
2026-05-05 14:37 45.94947 -76.08884 39603 ft 405 kts 286°
2026-05-05 14:37 45.97000 -76.16382 39609 ft 405 kts 286°
2026-05-05 14:38 45.99081 -76.23935 39598 ft 405 kts 286°
2026-05-05 14:38 46.01142 -76.31435 39592 ft 405 kts 286°
2026-05-05 14:39 46.03216 -76.39009 39586 ft 405 kts 286°
2026-05-05 14:39 46.05267 -76.46519 39590 ft 405 kts 286°
2026-05-05 14:40 46.07323 -76.54071 39587 ft 404 kts 286°
2026-05-05 14:40 46.09373 -76.61629 39594 ft 405 kts 286°
2026-05-05 14:41 46.11404 -76.69139 39580 ft 404 kts 286°
2026-05-05 14:41 46.13442 -76.76693 39569 ft 402 kts 286°
2026-05-05 14:42 46.15467 -76.84231 39578 ft 403 kts 285°
2026-05-05 14:42 46.17477 -76.91733 39582 ft 402 kts 286°
2026-05-05 14:43 46.19492 -76.99281 39580 ft 401 kts 285°
2026-05-05 14:43 46.21486 -77.06770 39581 ft 400 kts 285°
2026-05-05 14:44 46.23484 -77.14302 39584 ft 400 kts 285°
2026-05-05 14:44 46.25473 -77.21820 39581 ft 399 kts 285°
2026-05-05 14:45 46.27442 -77.29287 39579 ft 398 kts 285°
2026-05-05 14:45 46.29411 -77.36782 39580 ft 398 kts 285°
2026-05-05 14:46 46.31360 -77.44220 39582 ft 398 kts 285°
2026-05-05 14:46 46.33314 -77.51703 39577 ft 396 kts 285°
2026-05-05 14:47 46.35258 -77.59171 39580 ft 396 kts 285°
2026-05-05 14:47 46.37191 -77.66623 39578 ft 395 kts 285°
2026-05-05 14:48 46.39108 -77.74033 39579 ft 395 kts 285°
2026-05-05 14:48 46.41032 -77.81492 39585 ft 394 kts 285°
2026-05-05 14:49 46.42936 -77.88903 39585 ft 394 kts 285°
2026-05-05 14:49 46.44848 -77.96368 39582 ft 394 kts 285°
2026-05-05 14:50 46.46750 -78.03819 39578 ft 394 kts 285°
2026-05-05 14:50 46.48644 -78.11259 39579 ft 393 kts 285°
2026-05-05 14:51 46.50538 -78.18728 39582 ft 394 kts 285°
2026-05-05 14:51 46.52422 -78.26179 39579 ft 395 kts 285°
2026-05-05 14:52 46.54314 -78.33687 39578 ft 395 kts 285°
2026-05-05 14:52 46.56200 -78.41194 39589 ft 396 kts 285°
2026-05-05 14:53 46.58086 -78.48728 39594 ft 397 kts 285°
2026-05-05 14:53 46.59960 -78.56233 39586 ft 396 kts 285°
2026-05-05 14:54 46.61841 -78.63797 39589 ft 397 kts 285°
2026-05-05 14:54 46.63717 -78.71368 39591 ft 398 kts 285°
2026-05-05 14:55 46.65582 -78.78919 39595 ft 398 kts 285°
2026-05-05 14:55 46.67454 -78.86521 39595 ft 399 kts 285°
2026-05-05 14:56 46.69311 -78.94093 39607 ft 399 kts 285°
2026-05-05 14:56 46.71182 -79.01743 39606 ft 400 kts 285°
2026-05-05 14:57 46.73050 -79.09396 39596 ft 400 kts 285°
2026-05-05 14:57 46.74895 -79.17001 39606 ft 400 kts 284°
2026-05-05 14:58 46.76755 -79.24686 39598 ft 401 kts 285°
2026-05-05 14:58 46.78594 -79.32311 39597 ft 400 kts 284°
2026-05-05 14:59 46.80431 -79.39955 39606 ft 400 kts 284°
2026-05-05 14:59 46.82269 -79.47627 39599 ft 400 kts 284°
2026-05-05 15:00 46.83792 -79.54004 39601 ft 400 kts 284°
2026-05-05 15:00 46.85924 -79.62961 39595 ft 401 kts 284°
2026-05-05 15:01 46.87749 -79.70661 39600 ft 401 kts 284°
2026-05-05 15:01 46.89585 -79.78428 39596 ft 405 kts 284°
2026-05-05 15:02 46.91422 -79.86239 39599 ft 406 kts 284°
2026-05-05 15:02 46.93247 -79.94019 39596 ft 406 kts 284°
2026-05-05 15:03 46.95081 -80.01870 39598 ft 407 kts 284°
2026-05-05 15:03 46.96912 -80.09731 39598 ft 408 kts 284°
2026-05-05 15:04 46.98730 -80.17571 39607 ft 409 kts 284°
2026-05-05 15:04 47.00559 -80.25476 39593 ft 409 kts 284°
2026-05-05 15:05 47.03280 -80.37302 39606 ft 410 kts 284°
2026-05-05 15:06 47.05100 -80.45248 39597 ft 410 kts 284°
2026-05-05 15:06 47.06904 -80.53154 39593 ft 410 kts 284°
2026-05-05 15:07 47.08715 -80.61114 39600 ft 410 kts 284°
2026-05-05 15:07 47.10512 -80.69048 39601 ft 412 kts 284°
2026-05-05 15:08 47.12313 -80.77032 39599 ft 411 kts 284°
2026-05-05 15:08 47.14110 -80.85021 39597 ft 412 kts 284°
2026-05-05 15:09 47.15905 -80.93038 39598 ft 412 kts 284°
2026-05-05 15:09 47.17683 -81.01003 39601 ft 413 kts 284°
2026-05-05 15:10 47.19470 -81.09038 39601 ft 413 kts 284°
2026-05-05 15:10 47.21249 -81.17073 39598 ft 413 kts 284°
2026-05-05 15:11 47.23030 -81.25142 39601 ft 414 kts 284°
2026-05-05 15:11 47.24799 -81.33197 39602 ft 415 kts 284°
2026-05-05 15:12 47.26566 -81.41274 39601 ft 415 kts 284°
2026-05-05 15:12 47.28339 -81.49403 39602 ft 416 kts 284°
2026-05-05 15:13 47.30106 -81.57536 39610 ft 417 kts 284°
2026-05-05 15:13 47.31854 -81.65617 39604 ft 417 kts 284°
2026-05-05 15:14 47.33615 -81.73788 39602 ft 418 kts 284°
2026-05-05 15:14 47.35375 -81.81984 39607 ft 419 kts 284°
2026-05-05 15:15 47.37120 -81.90152 39606 ft 420 kts 284°
2026-05-05 15:15 47.38577 -81.96993 39615 ft 419 kts 284°
2026-05-05 15:16 47.40326 -82.05235 39621 ft 420 kts 284°
2026-05-05 15:16 47.42069 -82.13481 39627 ft 421 kts 284°
2026-05-05 15:17 47.43808 -82.21742 39625 ft 421 kts 284°
2026-05-05 15:17 47.45530 -82.29957 39629 ft 421 kts 284°
2026-05-05 15:18 47.47257 -82.38227 39635 ft 420 kts 284°
2026-05-05 15:18 47.48979 -82.46502 39636 ft 420 kts 284°
2026-05-05 15:19 47.50689 -82.54767 39638 ft 420 kts 284°
2026-05-05 15:19 47.52383 -82.62977 39642 ft 419 kts 283°
2026-05-05 15:20 47.54081 -82.71247 39646 ft 419 kts 283°
2026-05-05 15:20 47.55759 -82.79451 39644 ft 418 kts 283°
2026-05-05 15:21 47.57443 -82.87717 39649 ft 418 kts 283°
2026-05-05 15:21 47.59118 -82.95974 39637 ft 418 kts 283°
2026-05-05 15:22 47.60777 -83.04187 39638 ft 418 kts 283°
2026-05-05 15:22 47.62439 -83.12447 39638 ft 418 kts 283°
2026-05-05 15:23 47.64090 -83.20689 39638 ft 418 kts 283°
2026-05-05 15:23 47.65742 -83.28973 39634 ft 418 kts 283°
2026-05-05 15:24 47.67386 -83.37250 39637 ft 419 kts 283°
2026-05-05 15:24 47.69029 -83.45556 39637 ft 419 kts 283°
2026-05-05 15:25 47.70665 -83.53864 39635 ft 419 kts 282°
2026-05-05 15:25 47.72286 -83.62132 39638 ft 419 kts 282°
2026-05-05 15:26 47.73916 -83.70479 39646 ft 419 kts 282°
2026-05-05 15:26 47.75531 -83.78786 39648 ft 420 kts 282°
2026-05-05 15:27 47.77151 -83.87157 39652 ft 421 kts 282°
2026-05-05 15:27 47.78769 -83.95547 39656 ft 421 kts 282°
2026-05-05 15:28 47.80369 -84.03875 39665 ft 421 kts 282°
2026-05-05 15:28 47.81977 -84.12272 39665 ft 421 kts 282°
2026-05-05 15:29 47.83568 -84.20622 39665 ft 421 kts 282°
2026-05-05 15:29 47.85160 -84.29012 39673 ft 421 kts 282°
2026-05-05 15:30 47.86746 -84.37404 39678 ft 421 kts 282°
2026-05-05 15:30 47.88327 -84.45808 39674 ft 420 kts 282°
2026-05-05 15:31 47.89892 -84.54158 39682 ft 420 kts 282°
2026-05-05 15:31 47.91458 -84.62559 39684 ft 420 kts 282°
2026-05-05 15:32 47.93018 -84.70954 39681 ft 419 kts 282°
2026-05-05 15:32 47.94563 -84.79311 39683 ft 420 kts 282°
2026-05-05 15:33 47.96278 -84.87660 39695 ft 421 kts 284°
2026-05-05 15:33 47.98025 -84.95953 39689 ft 421 kts 284°
2026-05-05 15:34 47.99777 -85.04307 39685 ft 421 kts 284°
2026-05-05 15:34 48.01535 -85.12724 39675 ft 426 kts 284°
2026-05-05 15:35 48.03294 -85.21180 39689 ft 429 kts 284°
2026-05-05 15:35 48.05059 -85.29700 39682 ft 428 kts 284°
2026-05-05 15:36 48.06817 -85.38226 39687 ft 429 kts 284°
2026-05-05 15:36 48.08561 -85.46714 39680 ft 429 kts 284°
2026-05-05 15:37 48.10308 -85.55259 39672 ft 429 kts 284°
2026-05-05 15:37 48.12051 -85.63816 39674 ft 429 kts 284°
2026-05-05 15:38 48.13775 -85.72320 39672 ft 429 kts 284°
2026-05-05 15:38 48.15499 -85.80861 39671 ft 429 kts 284°
2026-05-05 15:39 48.17221 -85.89429 39677 ft 429 kts 283°
2026-05-05 15:39 48.18936 -85.97998 39662 ft 428 kts 283°
2026-05-05 15:40 48.20632 -86.06510 39664 ft 428 kts 283°
2026-05-05 15:40 48.22334 -86.15092 39663 ft 429 kts 283°
2026-05-05 15:41 48.24024 -86.23650 39664 ft 429 kts 283°
2026-05-05 15:41 48.25715 -86.32248 39665 ft 429 kts 283°
2026-05-05 15:42 48.27400 -86.40859 39666 ft 429 kts 283°
2026-05-05 15:42 48.29071 -86.49430 39671 ft 430 kts 283°
2026-05-05 15:43 48.30745 -86.58064 39674 ft 430 kts 283°
2026-05-05 15:43 48.32415 -86.66712 39674 ft 430 kts 283°
2026-05-05 15:44 48.34067 -86.75307 39671 ft 430 kts 283°
2026-05-05 15:44 48.35725 -86.83967 39681 ft 431 kts 283°
2026-05-05 15:45 48.37377 -86.92639 39685 ft 431 kts 283°
2026-05-05 15:45 48.39025 -87.01331 39684 ft 431 kts 283°
2026-05-05 15:46 48.40655 -87.09968 39682 ft 431 kts 283°
2026-05-05 15:46 48.42289 -87.18664 39684 ft 431 kts 283°
2026-05-05 15:47 48.43905 -87.27308 39682 ft 430 kts 283°
2026-05-05 15:47 48.45525 -87.36003 39685 ft 430 kts 283°
2026-05-05 15:48 48.47135 -87.44689 39684 ft 430 kts 283°
2026-05-05 15:48 48.48727 -87.53325 39689 ft 430 kts 283°
2026-05-05 15:49 48.50323 -87.62020 39695 ft 429 kts 283°
2026-05-05 15:49 48.51909 -87.70703 39689 ft 429 kts 283°
2026-05-05 15:50 48.53482 -87.79354 39695 ft 429 kts 283°
2026-05-05 15:50 48.55058 -87.88064 39693 ft 429 kts 283°
2026-05-05 15:51 48.56616 -87.96718 39719 ft 429 kts 283°
2026-05-05 15:51 48.58181 -88.05445 39722 ft 429 kts 283°
2026-05-05 15:52 48.59733 -88.14150 39728 ft 429 kts 283°
2026-05-05 15:52 48.61275 -88.22839 39730 ft 429 kts 283°
2026-05-05 15:53 48.62816 -88.31566 39739 ft 429 kts 283°
2026-05-05 15:53 48.64345 -88.40256 39743 ft 430 kts 283°
2026-05-05 15:54 48.65881 -88.49019 39737 ft 430 kts 283°
2026-05-05 15:54 48.67401 -88.57732 39748 ft 431 kts 283°
2026-05-05 15:55 48.68927 -88.66525 39749 ft 431 kts 283°
2026-05-05 15:55 48.70408 -88.75335 39743 ft 430 kts 279°
2026-05-05 15:56 48.71444 -88.84221 39762 ft 432 kts 279°
2026-05-05 15:56 48.72548 -88.93151 39762 ft 431 kts 279°
2026-05-05 15:57 48.73659 -89.02104 39765 ft 431 kts 279°
2026-05-05 15:57 48.74756 -89.10981 39767 ft 431 kts 279°
2026-05-05 15:58 48.75853 -89.19926 39767 ft 430 kts 279°
2026-05-05 15:58 48.76937 -89.28815 39767 ft 431 kts 279°
2026-05-05 15:59 48.78020 -89.37768 39768 ft 431 kts 279°
2026-05-05 15:59 48.79097 -89.46722 39758 ft 431 kts 279°
2026-05-05 16:00 48.80160 -89.55632 39765 ft 431 kts 279°
2026-05-05 16:00 48.81220 -89.64576 39758 ft 431 kts 279°
2026-05-05 16:01 48.82270 -89.73488 39758 ft 431 kts 279°
2026-05-05 16:01 48.83318 -89.82449 39763 ft 430 kts 279°
2026-05-05 16:02 48.84359 -89.91415 39757 ft 431 kts 279°
2026-05-05 16:02 48.85385 -90.00327 39756 ft 431 kts 279°
2026-05-05 16:03 48.86412 -90.09292 39756 ft 430 kts 279°
2026-05-05 16:03 48.87266 -90.16794 39749 ft 430 kts 279°
2026-05-05 16:04 48.88271 -90.25697 39749 ft 430 kts 279°
2026-05-05 16:04 48.89277 -90.34667 39747 ft 431 kts 279°
2026-05-05 16:05 48.90278 -90.43669 39751 ft 431 kts 279°
2026-05-05 16:05 48.91274 -90.52678 39749 ft 431 kts 279°
2026-05-05 16:06 48.92256 -90.61631 39749 ft 431 kts 279°
2026-05-05 16:06 48.93236 -90.70635 39750 ft 432 kts 279°
2026-05-05 16:07 48.94210 -90.79650 39747 ft 431 kts 279°
2026-05-05 16:07 48.95170 -90.88611 39750 ft 432 kts 279°
2026-05-05 16:08 48.96132 -90.97647 39762 ft 432 kts 279°
2026-05-05 16:08 48.97078 -91.06609 39758 ft 431 kts 279°
2026-05-05 16:09 48.98023 -91.15630 39754 ft 431 kts 279°
2026-05-05 16:09 48.98961 -91.24657 39759 ft 431 kts 279°
2026-05-05 16:10 48.99892 -91.33688 39763 ft 431 kts 279°
2026-05-05 16:10 49.00815 -91.42709 39769 ft 431 kts 279°
2026-05-05 16:11 49.01726 -91.51690 39768 ft 431 kts 278°
2026-05-05 16:12 49.03538 -91.69766 39796 ft 432 kts 278°
2026-05-05 16:13 49.05769 -91.92427 39818 ft 432 kts 278°
2026-05-05 16:13 49.06645 -92.01448 39813 ft 432 kts 278°
2026-05-05 16:14 49.08382 -92.19593 39811 ft 431 kts 278°
2026-05-05 16:15 49.10085 -92.37691 39807 ft 431 kts 278°
2026-05-05 16:16 49.11765 -92.55855 39817 ft 431 kts 278°
2026-05-05 16:17 49.13001 -92.69420 39827 ft 431 kts 278°
2026-05-05 16:18 49.14222 -92.83005 39839 ft 431 kts 278°
2026-05-05 16:19 49.15432 -92.96659 39839 ft 431 kts 278°
2026-05-05 16:19 49.16621 -93.10229 39844 ft 431 kts 278°
2026-05-05 16:20 49.18194 -93.28445 39841 ft 432 kts 277°
2026-05-05 16:22 49.20234 -93.51187 39843 ft 432 kts 284°
2026-05-05 16:23 49.23038 -93.69110 39850 ft 433 kts 283°
2026-05-05 16:23 49.25148 -93.82508 39849 ft 434 kts 283°
2026-05-05 16:24 49.25851 -93.86998 39719 ft 429 kts 283°
2026-05-05 16:24 49.26539 -93.91404 39346 ft 421 kts 283°
2026-05-05 16:24 49.27867 -93.99946 38596 ft 409 kts 283°
2026-05-05 16:25 49.28520 -94.04163 38078 ft 407 kts 283°
2026-05-05 16:25 49.29823 -94.12601 36953 ft 405 kts 283°
2026-05-05 16:25 49.30467 -94.16792 36459 ft 402 kts 283°
2026-05-05 16:26 49.31732 -94.25057 35466 ft 397 kts 283°
2026-05-05 16:26 49.32983 -94.33266 34490 ft 392 kts 283°
2026-05-05 16:27 49.33600 -94.37335 34026 ft 389 kts 283°
2026-05-05 16:27 49.34211 -94.41375 33567 ft 387 kts 283°
2026-05-05 16:27 49.34810 -94.45338 33114 ft 384 kts 283°
2026-05-05 16:27 49.35410 -94.49325 32662 ft 381 kts 283°
2026-05-05 16:28 49.36004 -94.53274 32221 ft 378 kts 283°
2026-05-05 16:28 49.36589 -94.57186 31787 ft 375 kts 283°
2026-05-05 16:28 49.37169 -94.61070 31355 ft 372 kts 283°
2026-05-05 16:28 49.37745 -94.64930 30930 ft 369 kts 283°
2026-05-05 16:29 49.38306 -94.68704 30516 ft 366 kts 283°
2026-05-05 16:29 49.38870 -94.72499 30097 ft 363 kts 283°
2026-05-05 16:29 49.39426 -94.76261 29690 ft 359 kts 283°
2026-05-05 16:29 49.39976 -94.79989 29278 ft 356 kts 283°
2026-05-05 16:30 49.40521 -94.83687 28879 ft 353 kts 283°
2026-05-05 16:30 49.41060 -94.87356 28485 ft 351 kts 283°
2026-05-05 16:30 49.41595 -94.91000 28094 ft 348 kts 283°
2026-05-05 16:30 49.42123 -94.94614 27710 ft 345 kts 283°
2026-05-05 16:31 49.42645 -94.98195 27335 ft 342 kts 283°
2026-05-05 16:31 49.43162 -95.01744 26968 ft 339 kts 283°
2026-05-05 16:31 49.43669 -95.05235 26594 ft 337 kts 283°
2026-05-05 16:31 49.44178 -95.08745 26229 ft 334 kts 283°
2026-05-05 16:32 49.44679 -95.12213 25866 ft 332 kts 283°
2026-05-05 16:32 49.45177 -95.15661 25503 ft 329 kts 283°
2026-05-05 16:32 49.45672 -95.19103 25144 ft 326 kts 283°
2026-05-05 16:32 49.46159 -95.22494 24792 ft 324 kts 282°
2026-05-05 16:33 49.46642 -95.25869 24438 ft 322 kts 282°
2026-05-05 16:33 49.47115 -95.29175 24090 ft 320 kts 282°
2026-05-05 16:33 49.47590 -95.32508 23745 ft 317 kts 282°
2026-05-05 16:33 49.48062 -95.35823 23403 ft 315 kts 282°
2026-05-05 16:34 49.48523 -95.39067 23064 ft 312 kts 282°
2026-05-05 16:34 49.48984 -95.42320 22725 ft 310 kts 282°
2026-05-05 16:34 49.49441 -95.45550 22402 ft 307 kts 282°
2026-05-05 16:34 49.49892 -95.48750 22079 ft 304 kts 282°
2026-05-05 16:35 49.50339 -95.51921 21749 ft 302 kts 282°
2026-05-05 16:35 49.50780 -95.55063 21418 ft 299 kts 282°
2026-05-05 16:35 49.51216 -95.58175 21104 ft 296 kts 282°
2026-05-05 16:35 49.51645 -95.61232 20785 ft 294 kts 283°
2026-05-05 16:36 49.52073 -95.64293 20477 ft 291 kts 283°
2026-05-05 16:36 49.52498 -95.67335 20162 ft 289 kts 283°
2026-05-05 16:36 49.52917 -95.70344 19852 ft 286 kts 283°
2026-05-05 16:36 49.53333 -95.73328 19550 ft 283 kts 283°
2026-05-05 16:37 49.53744 -95.76289 19252 ft 281 kts 283°
2026-05-05 16:37 49.54150 -95.79219 18948 ft 278 kts 283°
2026-05-05 16:37 49.54611 -95.82091 18600 ft 276 kts 291°
2026-05-05 16:37 49.55355 -95.84772 18312 ft 273 kts 294°
2026-05-05 16:38 49.56098 -95.87449 18016 ft 270 kts 294°
2026-05-05 16:38 49.56831 -95.90102 17744 ft 267 kts 294°
2026-05-05 16:38 49.57555 -95.92716 17472 ft 264 kts 294°
2026-05-05 16:38 49.58269 -95.95298 17113 ft 267 kts 294°
2026-05-05 16:39 49.59011 -95.97989 16590 ft 274 kts 294°
2026-05-05 16:39 49.59756 -96.00693 16293 ft 271 kts 294°
2026-05-05 16:39 49.60485 -96.03340 15942 ft 271 kts 294°
2026-05-05 16:39 49.61219 -96.06012 15630 ft 269 kts 295°
2026-05-05 16:40 49.61946 -96.08663 15323 ft 267 kts 295°
2026-05-05 16:40 49.62671 -96.11303 14982 ft 266 kts 295°
2026-05-05 16:40 49.63381 -96.13896 14671 ft 265 kts 295°
2026-05-05 16:40 49.64101 -96.16519 14210 ft 267 kts 295°
2026-05-05 16:41 49.64829 -96.19179 13812 ft 270 kts 295°
2026-05-05 16:41 49.65558 -96.21857 13453 ft 269 kts 296°
2026-05-05 16:41 49.66275 -96.24486 13040 ft 263 kts 296°
2026-05-05 16:41 49.66985 -96.27081 12428 ft 265 kts 296°
2026-05-05 16:42 49.67693 -96.29691 11919 ft 261 kts 296°
2026-05-05 16:42 49.68397 -96.32285 11443 ft 262 kts 296°
2026-05-05 16:42 49.69091 -96.34843 11179 ft 257 kts 296°
2026-05-05 16:42 49.69786 -96.37407 10811 ft 258 kts 296°
2026-05-05 16:43 49.70467 -96.39921 10504 ft 257 kts 296°
2026-05-05 16:43 49.71152 -96.42454 10194 ft 255 kts 296°
2026-05-05 16:43 49.71829 -96.44973 9848 ft 253 kts 296°
2026-05-05 16:43 49.72512 -96.47488 9522 ft 253 kts 296°
2026-05-05 16:44 49.73195 -96.49992 9217 ft 252 kts 296°
2026-05-05 16:44 49.73812 -96.52523 8867 ft 254 kts 286°
2026-05-05 16:44 49.74051 -96.55228 8524 ft 252 kts 280°
2026-05-05 16:44 49.74252 -96.57972 7906 ft 258 kts 280°
2026-05-05 16:45 49.74446 -96.60662 7540 ft 251 kts 279°
2026-05-05 16:45 49.74636 -96.63339 7232 ft 249 kts 280°
2026-05-05 16:45 49.74819 -96.65990 6918 ft 248 kts 277°
2026-05-05 16:45 49.74685 -96.68670 6584 ft 253 kts 263°
2026-05-05 16:46 49.74351 -96.71333 6254 ft 248 kts 262°
2026-05-05 16:46 49.74018 -96.73899 5887 ft 238 kts 262°
2026-05-05 16:46 49.73699 -96.76368 5458 ft 235 kts 262°
2026-05-05 16:46 49.73375 -96.78838 4938 ft 233 kts 262°
2026-05-05 16:47 49.73054 -96.81285 4438 ft 231 kts 262°
2026-05-05 16:47 49.72740 -96.83723 3929 ft 230 kts 262°
2026-05-05 16:47 49.72431 -96.86146 3446 ft 228 kts 263°
2026-05-05 16:47 49.72127 -96.88537 3060 ft 221 kts 262°
2026-05-05 16:48 49.71858 -96.90752 3038 ft 206 kts 268°
2026-05-05 16:48 49.71932 -96.92926 3009 ft 201 kts 281°
2026-05-05 16:48 49.72156 -96.95063 3005 ft 201 kts 282°
2026-05-05 16:48 49.72389 -96.97204 3011 ft 201 kts 282°
2026-05-05 16:49 49.72752 -96.99279 2980 ft 197 kts 301°
2026-05-05 16:49 49.73599 -97.00895 3005 ft 197 kts 315°
2026-05-05 16:49 49.74574 -97.02342 3020 ft 186 kts 317°
2026-05-05 16:49 49.75483 -97.03623 2999 ft 169 kts 318°
2026-05-05 16:50 49.76357 -97.04818 2986 ft 167 kts 319°
2026-05-05 16:50 49.77225 -97.06007 2996 ft 166 kts 319°
2026-05-05 16:50 49.78096 -97.07197 2986 ft 167 kts 319°
2026-05-05 16:50 49.78672 -97.07984 2984 ft 166 kts 319°
2026-05-05 16:51 49.79823 -97.09553 2997 ft 167 kts 319°
2026-05-05 16:51 49.80698 -97.10745 2979 ft 168 kts 319°
2026-05-05 16:51 49.81289 -97.11552 2841 ft 167 kts 319°
2026-05-05 16:51 49.82127 -97.12695 2675 ft 157 kts 319°
2026-05-05 16:52 49.82905 -97.13756 2484 ft 138 kts 319°
2026-05-05 16:52 49.83584 -97.14680 2332 ft 126 kts 319°
2026-05-05 16:52 49.84242 -97.15583 2163 ft 127 kts 320°
2026-05-05 16:52 49.84899 -97.16482 1999 ft 125 kts 319°
2026-05-05 16:53 49.85548 -97.17368 1844 ft 124 kts 320°
2026-05-05 16:53 49.86191 -97.18239 1680 ft 123 kts 320°
2026-05-05 16:53 49.86843 -97.19142 1501 ft 125 kts 319°
2026-05-05 16:53 49.87501 -97.20020 1345 ft 127 kts 320°
2026-05-05 16:54 49.88167 -97.20932 1199 ft 128 kts 317°
2026-05-05 16:54 49.88834 -97.21853 993 ft 128 kts 319°
2026-05-05 16:54 49.89504 -97.22776 833 ft 130 kts 321°
2026-05-05 16:54 49.90155 -97.23656 787 ft 104 kts 319°
2026-05-05 16:55 49.90538 -97.24181 788 ft 55 kts 319°
2026-05-05 16:55 49.90724 -97.24312 790 ft 21 kts 44°
2026-05-05 16:55 49.90762 -97.24109 792 ft 20 kts 78°
2026-05-05 16:55 49.90792 -97.23870 788 ft 25 kts 79°
2026-05-05 16:56 49.90830 -97.23579 784 ft 29 kts 78°
2026-05-05 16:56 49.90840 -97.23370 784 ft 18 kts 117°
2026-05-05 16:56 49.90722 -97.23276 783 ft 21 kts 185°
2026-05-05 16:56 49.90574 -97.23344 786 ft 23 kts 198°
2026-05-05 16:57 49.90430 -97.23422 787 ft 22 kts 200°
2026-05-05 16:57 49.90291 -97.23426 789 ft 22 kts 143°
2026-05-05 16:57 49.90176 -97.23270 789 ft 23 kts 139°
2026-05-05 16:57 49.90046 -97.23092 788 ft 27 kts 138°
2026-05-05 16:58 49.89909 -97.22902 784 ft 26 kts 138°
2026-05-05 16:58 49.89809 -97.22724 783 ft 18 kts 129°
2026-05-05 16:58 49.89725 -97.22567 785 ft 17 kts 130°
2026-05-05 16:58 49.89635 -97.22608 782 ft 19 kts 229°
2026-05-05 16:59 49.89535 -97.22784 780 ft 25 kts 229°
2026-05-05 16:59 49.89488 -97.22986 778 ft 21 kts 275°
2026-05-05 16:59 49.89504 -97.23221 778 ft 16 kts 276°
2026-05-05 16:59 49.89479 -97.23349 779 ft 11 kts 176°
2026-05-05 17:00 49.89410 -97.23276 779 ft 14 kts 141°
2026-05-05 17:00 49.89321 -97.23177 780 ft 19 kts 151°
2026-05-05 17:00 49.89196 -97.23100 781 ft 16 kts 163°
2026-05-05 17:00 49.89122 -97.23093 781 ft 0 kts 233°